Location: Mascot Post Office (historical)
(40.2645°N, 99.5462°W)
Time: 02:30:33
(UTC+00:00)

Okean 3 Rocket - Pass Details

Date: 14 July 2020
Orbit: 615 x 645 km, 82.5° (Epoch: 14 August)

Event Time Altitude Azimuth Distance (km) Brightness Sun altitude
Exits shadow 04:45:34 67° 121° (ESE) 680 3.4 -22.2°
Maximum altitude 04:45:50 69° 95° (E) 671 3.5 -22.3°
Drops below altitude 10° 04:50:13 10° 13° (NNE) 1,995 6.8 -22.7°
Sets 04:52:27 0° 11° (N) 2,902 7.8 -22.9°
